Wind_Speed
12 11 11 10 11 12 12 13 13 14 13 13 13 12 12 13 12 10 10 11 12 12
14 12 11 11 12 12 12 13 13 14 14 14 14 13 12 12 12 12 12 12 13 14
16 13 12 13 13 13 12 12 13 13 13 13 13 12 11 10 10 10 11 11 12 13
19 16 14 14 14 13 13 13 13 14 14 13 12 12 11 9 10 9 9 10 10 11
22 20 18 16 15 13 13 13 13 13 13 12 11 11 10 8 8 8 9 9 9 10
25 23 21 19 17 15 14 14 13 13 12 11 10 9 8 7 6 7 8 9 10 11
27 26 24 21 20 17 15 14 13 13 13 11 11 11 9 8 6 6 7 8 9 12
27 27 26 25 22 19 17 15 13 13 12 11 12 11 9 9 8 7 6 7 7 10
27 28 30 28 25 22 19 16 14 13 12 11 13 10 9 9 8 8 8 7 8 6
27 28 30 30 27 25 21 18 15 12 12 12 13 12 9 9 8 8 8 9 9 7
27 29 30 32 31 27 23 19 16 13 12 12 13 15 11 9 8 8 9 10 10 9
26 29 32 33 33 29 24 19 18 15 13 12 13 15 13 9 9 7 6 12 11 13
23 25 29 32 31 28 25 21 19 18 14 12 12 15 14 12 10 10 9 11 10 10
26 27 27 26 27 30 26 24 18 18 16 13 13 14 15 13 11 11 12 12 11 13
Wind_Direction
301 303 309 317 319 322 328 332 333 336 336 336 335 332 329 326 331 330 321 322 331 332
286 291 302 310 312 319 324 326 330 330 330 329 328 327 327 328 329 325 325 326 327 333
275 282 293 300 306 312 317 324 327 329 328 327 326 327 326 325 326 328 330 337 334 333
271 274 278 286 295 302 310 318 324 328 331 332 331 332 334 332 333 335 335 335 337 337
264 267 270 275 282 291 301 309 318 324 326 328 331 334 337 340 344 343 339 340 334 336
261 262 266 269 275 282 291 301 311 317 319 322 321 324 329 329 328 333 333 336 332 337
262 260 262 264 268 275 283 293 304 311 313 313 310 314 319 316 313 311 313 327 331 333
268 260 258 259 262 267 276 286 295 300 301 300 294 309 310 306 301 303 299 304 318 321
273 262 257 258 258 261 264 270 278 287 291 290 288 298 305 300 291 294 296 302 308 316
275 268 261 258 255 253 255 259 266 274 283 281 284 293 300 299 291 295 300 306 308 306
274 269 264 259 254 252 251 256 265 267 277 275 277 284 289 290 292 300 307 315 317 316
281 274 267 262 255 250 249 253 259 260 261 267 271 277 281 284 292 295 300 300 309 312
283 273 268 267 262 249 243 248 254 261 260 261 262 270 277 281 281 285 281 291 292 297
288 281 273 266 256 243 240 249 251 261 262 255 260 258 269 277 280 276 271 284 289 292
Height
1505 1503 1501 1499 1498 1497 1495 1492 1490 1488 1486 1483 1481 1480 1478 1475 1474 1472 1471 1469 1468 1466
1502 1500 1499 1497 1496 1494 1492 1490 1488 1486 1484 1481 1479 1477 1476 1474 1472 1470 1468 1467 1466 1464
1498 1497 1496 1495 1494 1492 1490 1488 1486 1484 1482 1479 1477 1475 1473 1471 1469 1468 1466 1464 1463 1462
1494 1493 1492 1491 1491 1489 1488 1486 1484 1481 1479 1477 1475 1473 1470 1468 1466 1465 1463 1462 1460 1459
1489 1489 1488 1488 1486 1485 1484 1482 1481 1479 1477 1475 1473 1470 1468 1466 1464 1463 1461 1460 1458 1457
1484 1484 1485 1484 1483 1482 1480 1479 1478 1477 1475 1473 1471 1468 1467 1465 1463 1462 1460 1459 1457 1456
1478 1479 1480 1480 1479 1479 1477 1476 1474 1473 1472 1471 1469 1467 1466 1464 1462 1461 1459 1457 1456 1455
1472 1473 1474 1474 1473 1473 1474 1472 1471 1469 1468 1467 1466 1465 1465 1463 1461 1459 1457 1456 1455 1453
1466 1467 1467 1467 1468 1468 1467 1467 1466 1464 1464 1463 1462 1462 1462 1460 1459 1458 1456 1454 1452 1452
1460 1460 1460 1461 1462 1461 1461 1461 1460 1459 1459 1458 1458 1457 1458 1457 1455 1455 1454 1452 1450 1449
1453 1452 1452 1453 1455 1457 1456 1455 1455 1453 1453 1453 1454 1453 1453 1453 1452 1451 1451 1449 1447 1445
1449 1448 1446 1445 1446 1449 1451 1451 1450 1448 1447 1448 1449 1449 1448 1449 1449 1448 1448 1447 1445 1442
1441 1438 1437 1439 1441 1443 1444 1446 1445 1445 1442 1441 1444 1444 1444 1445 1444 1444 1443 1443 1442 1440
1435 1433 1430 1428 1431 1434 1438 1439 1441 1441 1439 1438 1439 1439 1440 1440 1440 1440 1439 1439 1439 1437